Terug naar catalogus

BREEZE-M R/B

ActiefHEO
NORAD 39494·ROCKET BODY·🇷🇺 Russia

Gelanceerd Dec 8, 2013 vanaf Baikonur Cosmodrome

Loading…

Volgende Passages (komende 24 uur)

TLE

VersSource: Space-Track

Epoch: Sep 12, 2026, 15:52 UTC

1 39494U 13073C   26255.66143240 -.00000393  00000-0  00000-0 0  9995
2 39494  24.6356 178.0249 7400982 176.5792 195.3843  1.09861927 50231

Volg BREEZE-M R/B in realtime met AllMySat

Download on the App Store